Weather History for KFTK - June, 2013

Change the Weather History Date:

Friday, June 21, 2013

  Actual Average Record
Temperature  
Mean Temperature 75 °F -  
Max Temperature 87 °F 81 °F 91 °F (2002)
Min Temperature 63 °F 63 °F 56 °F (2007)
Cooling Degree Days 10    
Growing Degree Days 25 (Base 50)    
Moisture  
Dew Point 67 °F    
Average Humidity 76    
Maximum Humidity 99    
Minimum Humidity 52    
Precipitation  
Precipitation 0.00 in - - ()
Sea Level Pressure  
Sea Level Pressure 30.17 in    
Wind  
Wind Speed 2 mph (SSE)    
Max Wind Speed 10 mph    
Max Gust Speed -    
Visibility 10 miles    
Events Rain    
Averages and records for this station are not official NWS values.
T = Trace of Precipitation, MM = Missing Value Source: NWS Daily Summary

Daily Weather History Graph

Daily Weather History Graph

Search for Another Location

Airport or City:

Trip Planner

Search our weather history database for the weather conditions in past years. The results will help you decide how hot, cold, wet, or windy it might be!

Date:

Astronomy

Jun. 21, 2013 Rise Set
Actual Time 6:21 AM EDT 9:09 PM EDT
Civil Twilight 5:50 AM EDT 9:41 PM EDT
Nautical Twilight 5:11 AM EDT 10:20 PM EDT
Astronomical Twilight 4:26 AM EDT 11:05 PM EDT
Moon 7:20 PM EDT (6/21) 4:35 AM EDT (6/21)
Length of Visible Light 15h 50m
Length of Day
14h 47m
Waxing Gibbous, 95% of the Moon is Illuminated
Jun 21
Waxing Gibbous
Jun 23
Full
Jun 30
Last Quarter
Jul 8
New
Jul 15
First Quarter

Hourly Weather History & Observations

Time (EDT) Temp. Heat Index Dew Point Humidity Pressure Visibility Wind Dir Wind Speed Gust Speed Precip Events Conditions
12:58 AM 66.9 °F - 64.8 °F 93% 30.16 in 10.0 mi Calm Calm - N/A   Clear
1:58 AM 66.4 °F - 63.5 °F 90% 30.16 in 10.0 mi Calm Calm - N/A   Clear
2:58 AM 65.1 °F - 63.9 °F 96% 30.16 in 10.0 mi Calm Calm - N/A   Clear
3:58 AM 64.0 °F - 63.0 °F 96% 30.15 in 10.0 mi Calm Calm - N/A   Clear
4:58 AM 64.0 °F - 63.0 °F 96% 30.16 in 10.0 mi Calm Calm - N/A   Clear
5:58 AM 63.1 °F - 62.8 °F 99% 30.17 in 10.0 mi Calm Calm - N/A   Clear
6:58 AM 63.0 °F - 62.8 °F 99% 30.19 in 10.0 mi Calm Calm - N/A   Clear
7:58 AM 67.6 °F - 64.9 °F 91% 30.18 in 10.0 mi East 4.6 mph - N/A   Clear
8:58 AM 71.4 °F - 65.8 °F 82% 30.19 in 10.0 mi Variable 1.2 mph - N/A   Clear
8:59 AM 71.6 °F - 66.2 °F 83% 30.20 in 10.0 mi ESE 2.3 mph - N/A Rain Light Rain
9:14 AM 73.4 °F - 66.2 °F 78% 30.20 in 10.0 mi Variable 1.2 mph - N/A   Clear
9:16 AM 73.4 °F - 66.2 °F 78% 30.20 in 10.0 mi Variable 3.5 mph - N/A Rain Light Rain
9:19 AM 73.4 °F - 66.2 °F 78% 30.21 in 10.0 mi SSE 3.5 mph - N/A   Clear
9:21 AM 73.4 °F - 66.2 °F 78% 30.20 in 10.0 mi South 1.2 mph - N/A   Light Drizzle
9:26 AM 73.4 °F - 66.2 °F 78% 30.21 in 10.0 mi South 2.3 mph - N/A   Clear
9:58 AM 76.6 °F - 66.9 °F 72% 30.19 in 10.0 mi SSE 2.3 mph - 0.00 in   Clear
10:58 AM 80.2 °F 82.5 °F 66.7 °F 63% 30.20 in 10.0 mi SSW 3.5 mph - N/A   Clear
11:58 AM 82.6 °F 84.9 °F 66.6 °F 58% 30.20 in 10.0 mi Variable 2.3 mph - N/A   Clear
12:58 PM 84.6 °F 87.9 °F 68.2 °F 58% 30.19 in 10.0 mi Variable 3.5 mph - N/A   Partly Cloudy
1:58 PM 85.8 °F 88.8 °F 67.5 °F 54% 30.19 in 10.0 mi Variable 5.8 mph - N/A   Clear
2:58 PM 85.8 °F 88.8 °F 67.6 °F 54% 30.17 in 10.0 mi South 5.8 mph - N/A   Partly Cloudy
3:58 PM 87.1 °F 91.6 °F 69.4 °F 56% 30.15 in 10.0 mi Variable 5.8 mph - N/A   Partly Cloudy
4:58 PM 87.3 °F 90.5 °F 67.6 °F 52% 30.13 in 10.0 mi SSW 8.1 mph - N/A   Partly Cloudy
5:58 PM 85.8 °F 89.4 °F 68.5 °F 56% 30.12 in 10.0 mi SSE 3.5 mph - N/A   Clear
6:58 PM 85.6 °F 89.7 °F 69.1 °F 58% 30.11 in 10.0 mi SSW 3.5 mph - N/A   Clear
7:58 PM 83.5 °F 87.4 °F 69.8 °F 63% 30.13 in 10.0 mi South 4.6 mph - N/A   Clear
8:58 PM 79.7 °F - 70.0 °F 72% 30.13 in 10.0 mi South 2.3 mph - N/A   Clear
9:58 PM 75.7 °F - 69.3 °F 80% 30.15 in 10.0 mi Calm Calm - N/A   Partly Cloudy
10:58 PM 75.0 °F - 69.1 °F 82% 30.15 in 10.0 mi SE 2.3 mph - N/A   Overcast
11:58 PM 75.4 °F - 68.5 °F 79% 30.11 in 10.0 mi South 10.4 mph - N/A   Clear